Regional Weather Roundup
Issued by NWS

Home | Current Version | Previous Version | Graphics & Text | Print | Product List | Glossary On
Versions: 1 2 3 4 5 6 7 8 9 10 11 12 13 14 15 16 17 18 19 20 21 22 23 24 25 26 27 28 29 30 31 32 33 34 35 36 37 38 39 40 41 42 43 44 45 46 47 48 49 50
000
ASUS43 KLMK 300302
RWRKY
KENTUCKY REGIONAL WEATHER ROUNDUP
NATIONAL WEATHER SERVICE LOUISVILLE KY
1100 PM EDT MON JUN 29 2015

NOTE "FAIR" INDICATES FEW OR NO CLOUDS BELOW 12,000 FEET
WITH NO SIGNIFICANT WEATHER AND/OR OBSTRUCTIONS TO VISIBILITY.

KYZ001>023-026-027-061>063-070>075-300400-
WESTERN AND SOUTH CENTRAL KENTUCKY

CITY           SKY/WX    TMP DP  RH WIND       PRES   REMARKS
PADUCAH        CLEAR     73  68  84 CALM      29.87R
HENDERSON      CLEAR     68  64  88 W3        29.86R
OWENSBORO      CLEAR     73  65  76 CALM      29.88R
HOPKINSVILLE   MOCLDY    74  70  88 SW5       29.90R
BOWLING GREEN  CLEAR     73  69  87 CALM      29.90R
GLASGOW        NOT AVBL
$$

KYZ024-025-028>034-038-045-046-053-300400-
NORTH CENTRAL KENTUCKY

CITY           SKY/WX    TMP DP  RH WIND       PRES   REMARKS
LOUISVILLE/SDF PTCLDY    75  64  68 W7        29.86R
LOUISVILLE/LOU CLEAR     73  64  73 SW3       29.87R
FORT KNOX      NOT AVBL
$$

KYZ035>037-039>044-047>052-055>060-089>105-300400-
NORTHEAST KENTUCKY

CITY           SKY/WX    TMP DP  RH WIND       PRES   REMARKS
LEXINGTON      PTCLDY    69  66  90 SW7       29.89R
COVINGTON      PTCLDY    69  65  86 SW3       29.84R
FRANKFORT      CLEAR     69  66  90 SW3       29.86R
$$

KYZ054-064>069-076>088-106>120-300400-
SOUTHEAST KENTUCKY

CITY           SKY/WX    TMP DP  RH WIND       PRES   REMARKS
JACKSON        CLOUDY    68  64  87 VRB3      29.92R
LONDON         CLOUDY    70  64  81 SW5       29.93R
SOMERSET       NOT AVBL
MIDDLESBORO    DRIZZLE   66  66  99 CALM      29.95S
MONTICELLO     CLOUDY    68  68 100 CALM      29.95R
$$




USA.gov is the U.S. government's official web portal to all federal, state and local government web resources and services.